2023/08/04 00:00:00, 5.9,23.7
2023/08/04 00:10:00, 0.1,24.0
2023/08/04 00:20:00, 0.1,23.6
2023/08/04 00:30:00, 0.1,23.7
2023/08/04 00:40:00, 0.1,23.7
2023/08/04 00:50:00, 0.1,23.5
2023/08/04 01:00:00, 0.1,23.6
2023/08/04 01:10:00, 0.1,23.7
2023/08/04 01:20:00, 0.1,23.7
2023/08/04 01:30:00, 0.1,23.6
2023/08/04 01:40:00, 0.1,23.7
2023/08/04 01:50:00, 0.1,23.9
2023/08/04 02:00:00, 0.1,23.7
2023/08/04 02:10:00, 0.1,23.6
2023/08/04 02:20:00, 0.1,23.5
2023/08/04 02:30:00, 0.1,23.4
2023/08/04 02:40:00, 0.1,23.5
2023/08/04 02:50:00, 0.1,23.7
2023/08/04 03:00:00, 0.1,23.4
2023/08/04 03:10:00, 0.1,23.6
2023/08/04 03:20:00, 0.1,23.7
2023/08/04 03:30:00, 0.1,23.2
2023/08/04 03:40:00, 0.1,23.0
2023/08/04 03:50:00, 0.2,23.0
2023/08/04 04:00:00, 0.2,23.2
2023/08/04 04:10:00, 0.2,22.9
2023/08/04 04:20:00, 0.2,23.1
2023/08/04 04:30:00, 0.2,22.9
2023/08/04 04:40:00, 0.3,23.0
2023/08/04 04:50:00, 0.3,23.1
2023/08/04 05:00:00, 0.3,23.0
2023/08/04 05:10:00, 0.4,23.0
2023/08/04 05:20:00, 0.4,23.0
2023/08/04 05:30:00, 0.6,23.0
2023/08/04 05:40:00, 2.7,23.0
2023/08/04 05:50:00, 7.3,23.1
2023/08/04 06:00:00, 9.2,23.5
2023/08/04 06:10:00, 9.2,23.3
2023/08/04 06:20:00, 6.0,24.0
2023/08/04 06:30:00, 1.2,24.8
2023/08/04 06:40:00, 0.4,25.6
2023/08/04 06:50:00, 0.3,26.1
2023/08/04 07:00:00, 0.3,26.9
2023/08/04 07:10:00, 0.2,27.5
2023/08/04 07:20:00, 0.2,28.2
2023/08/04 07:30:00, 0.2,28.5
2023/08/04 07:40:00, 0.2,29.2
2023/08/04 07:50:00, 0.4,29.5
2023/08/04 08:00:00, 0.5,29.7
2023/08/04 08:10:00, 1.0,30.0
2023/08/04 08:20:00, 2.3,30.7
2023/08/04 08:30:00, 5.8,31.1
2023/08/04 08:40:00, 7.3,31.3
2023/08/04 08:50:00, 3.6,31.4
2023/08/04 09:00:00, 1.2,32.0
2023/08/04 09:10:00, 0.6,32.8
2023/08/04 09:20:00, 0.5,33.6
2023/08/04 09:30:00, 0.5,33.4
2023/08/04 09:40:00, 0.8,33.2
2023/08/04 09:50:00, 1.8,33.9
2023/08/04 10:00:00, 8.5,34.3
2023/08/04 10:10:00, 9.0,34.7
2023/08/04 10:20:00, 8.8,35.4
2023/08/04 10:30:00, 7.8,35.2
2023/08/04 10:40:00, 1.5,35.4
2023/08/04 10:50:00, 0.6,35.9
2023/08/04 11:00:00, 0.5,34.9
2023/08/04 11:10:00, 0.5,34.8
2023/08/04 11:20:00, 0.5,36.4
2023/08/04 11:30:00, 0.5,37.1
2023/08/04 11:40:00, 0.6,37.4
2023/08/04 11:50:00, 2.4,37.9
2023/08/04 12:00:00, 8.2,38.2
2023/08/04 12:10:00, 4.4,37.7
2023/08/04 12:20:00, 2.7,36.9
2023/08/04 12:30:00, 5.0,35.9
2023/08/04 12:40:00, 7.0,36.4
2023/08/04 12:50:00, 4.5,36.3
2023/08/04 13:00:00, 3.9,36.4
2023/08/04 13:10:00, 7.6,35.1
2023/08/04 13:20:00, 4.8,34.4
2023/08/04 13:30:00, 1.3,34.4
2023/08/04 13:40:00, 0.8,33.4
2023/08/04 13:50:00, 0.7,32.5
2023/08/04 14:00:00, 6.3,32.7
2023/08/04 14:10:00, 6.5,31.9
2023/08/04 14:20:00, 6.5,34.3
2023/08/04 14:30:00, 6.4,34.6
2023/08/04 14:40:00, 2.0,34.7
2023/08/04 14:50:00, 1.3,34.7
2023/08/04 15:00:00, 7.0,34.7
2023/08/04 15:10:00, 7.3,34.9
2023/08/04 15:20:00, 6.0,34.9
2023/08/04 15:30:00, 1.4,35.2
2023/08/04 15:40:00, 0.7,35.1
2023/08/04 15:50:00, 0.5,35.2
2023/08/04 16:00:00, 0.5,34.4
2023/08/04 16:10:00, 0.5,33.7
2023/08/04 16:20:00, 0.5,34.4
2023/08/04 16:30:00, 0.9,34.5
2023/08/04 16:40:00, 5.1,35.5
2023/08/04 16:50:00, 6.5,35.1
2023/08/04 17:00:00, 5.7,33.8
2023/08/04 17:10:00, 5.5,33.6
2023/08/04 17:20:00, 5.3,33.2
2023/08/04 17:30:00, 5.3,32.4
2023/08/04 17:40:00, 5.3,32.1
2023/08/04 17:50:00, 4.9,32.5
2023/08/04 18:00:00, 3.9,31.2
2023/08/04 18:10:00, 2.4,31.1
2023/08/04 18:20:00, 1.7,30.3
2023/08/04 18:30:00, 1.1,29.6
2023/08/04 18:40:00, 1.1,28.8
2023/08/04 18:50:00, 0.8,28.0
2023/08/04 19:00:00, 0.6,28.0
2023/08/04 19:10:00, 0.5,27.4
2023/08/04 19:20:00, 0.5,27.2
2023/08/04 19:30:00, 0.4,27.0
2023/08/04 19:40:00, 0.3,27.0
2023/08/04 19:50:00, 0.4,26.8
2023/08/04 20:00:00, 1.2,26.1
2023/08/04 20:10:00, 2.2,26.0
2023/08/04 20:20:00, 2.7,26.3
2023/08/04 20:30:00, 2.9,25.9
2023/08/04 20:40:00, 3.4,25.8
2023/08/04 20:50:00, 4.1,25.4
2023/08/04 21:00:00, 4.3,25.2
2023/08/04 21:10:00, 4.4,25.1
2023/08/04 21:20:00, 4.2,25.0
2023/08/04 21:30:00, 4.1,24.8
2023/08/04 21:40:00, 4.3,24.5
2023/08/04 21:50:00, 4.3,24.3
2023/08/04 22:00:00, 4.4,24.1
2023/08/04 22:10:00, 4.7,24.1
2023/08/04 22:20:00, 5.0,24.1
2023/08/04 22:30:00, 5.3,24.1
2023/08/04 22:40:00, 5.8,23.9
2023/08/04 22:50:00, 2.2,23.9
2023/08/04 23:00:00, 0.1,23.7
2023/08/04 23:10:00, 0.1,23.8
2023/08/04 23:20:00, 0.1,23.3
2023/08/04 23:30:00, 0.1,23.4
2023/08/04 23:40:00, 0.1,23.6
2023/08/04 23:50:00, 0.1,23.3
